TimeCST,TemperatureF,Dew PointF,Humidity,Sea Level PressureIn,VisibilityMPH,Wind Direction,Wind SpeedMPH,Gust SpeedMPH,PrecipitationIn,Events,Conditions,WindDirDegrees,DateUTC
12:53 AM,30.9,27.0,85,30.32,10.0,NW,8.1,-,N/A,,Clear,310,2013-11-10 06:53:00
1:53 AM,30.0,26.1,85,30.32,10.0,West,8.1,-,N/A,,Clear,280,2013-11-10 07:53:00
2:53 AM,28.9,25.0,85,30.34,10.0,WNW,9.2,-,N/A,,Clear,290,2013-11-10 08:53:00
3:53 AM,28.0,24.1,85,30.35,10.0,West,6.9,-,N/A,,Clear,280,2013-11-10 09:53:00
4:53 AM,27.0,24.1,89,30.37,10.0,WNW,5.8,-,N/A,,Clear,290,2013-11-10 10:53:00
5:53 AM,26.1,23.0,88,30.39,10.0,WNW,4.6,-,N/A,,Clear,290,2013-11-10 11:53:00
6:53 AM,24.1,21.9,91,30.40,10.0,WNW,6.9,-,N/A,,Clear,300,2013-11-10 12:53:00
7:53 AM,27.0,24.1,89,30.41,10.0,WNW,6.9,-,N/A,,Clear,290,2013-11-10 13:53:00
8:53 AM,30.9,27.0,85,30.43,10.0,West,6.9,-,N/A,,Clear,280,2013-11-10 14:53:00
9:53 AM,35.1,28.9,78,30.43,10.0,SW,6.9,-,N/A,,Clear,230,2013-11-10 15:53:00
10:53 AM,39.0,30.0,70,30.42,10.0,WSW,6.9,-,N/A,,Clear,250,2013-11-10 16:53:00
11:53 AM,39.9,28.9,65,30.39,10.0,SW,6.9,-,N/A,,Clear,230,2013-11-10 17:53:00
12:53 PM,43.0,30.0,60,30.35,10.0,WSW,6.9,-,N/A,,Overcast,250,2013-11-10 18:53:00
1:53 PM,42.1,28.9,60,30.35,10.0,SW,10.4,-,N/A,,Overcast,230,2013-11-10 19:53:00
2:53 PM,42.1,30.0,62,30.32,10.0,SSW,9.2,-,N/A,,Overcast,210,2013-11-10 20:53:00
3:53 PM,43.0,28.9,58,30.30,10.0,South,6.9,-,N/A,,Overcast,190,2013-11-10 21:53:00
4:53 PM,42.1,30.0,62,30.28,10.0,South,5.8,-,N/A,,Overcast,190,2013-11-10 22:53:00
5:53 PM,39.0,28.9,67,30.27,10.0,SSE,4.6,-,N/A,,Overcast,160,2013-11-10 23:53:00
6:53 PM,37.9,28.9,70,30.25,10.0,SSE,5.8,-,N/A,,Partly Cloudy,160,2013-11-11 00:53:00
7:53 PM,37.0,28.0,70,30.22,10.0,SE,4.6,-,N/A,,Partly Cloudy,130,2013-11-11 01:53:00
8:53 PM,43.0,30.9,62,30.21,10.0,SSW,6.9,-,N/A,,Overcast,200,2013-11-11 02:53:00
9:53 PM,45.0,30.9,58,30.19,10.0,SSW,8.1,-,N/A,,Overcast,200,2013-11-11 03:53:00
10:53 PM,45.0,30.9,58,30.18,10.0,SSW,10.4,-,N/A,,Overcast,210,2013-11-11 04:53:00
11:53 PM,44.1,32.0,63,30.16,10.0,SSW,10.4,-,N/A,,Overcast,210,2013-11-11 05:53:00